Weather in Jersey City

United States     40°42′52″N   74°04′05″W
temp.,
°C
wind,
m/s
gust,
m/s
humid.,
%
clouds,
%
prec.,
mm/h
press.,
hPa
HPBL,
m
18 may, tue
tue1823:00+19sw24441 0.0 1026226
02:00+17w25555 0.0 1026150
05:00+16wsw2466100 0.0 1026132
08:00+18w365395 0.0 1027307
11:00+24wsw45315 0.0 10271781
14:00+26wsw452798 0.0 10252650
17:00+24w363656 0.0 1024979
20:00+23w484414 0.0 1024579
19 may, wed
wed1923:00+20wnw410586 0.0 1025346
02:00+18wnw25649 0.0 1025140
05:00+17wnw376619 0.0 1025208
08:00+20nw47555 0.0 1027335
11:00+26nnw23370 0.0 10261118
14:00+29nnw353120 0.0 10252465
17:00+29nw5634100 0.0 10241976
20:00+26e354587 0.0 1025330
20 may, thu
thu2023:00+23ene226187 0.3 102667
02:00+19e34695 0.4 1027263
05:00+18e2366100 0.0 1028271
08:00+19ese335455 0.0 1031498
11:00+23sse333523 0.0 1031949
14:00+23s5432100 0.0 1031908
17:00+21sse543581 0.0 1031655
20:00+18s454566 0.0 1031346
21 may, fri
fri2123:00+16s345652 0.0 1032311
02:00+15sse236499 0.0 1032224
05:00+15ssw236864 0.0 1032159
08:00+17wsw2451100 0.0 1032356
11:00+21sw3338100 0.0 1031595
14:00+22s3344100 0.0 1030614
17:00+19sse3354100 0.0 1029192
20:00+18sse2261100 0.1 1029177
22 may, sat
sat2223:00+17s2370100 0.2 1028164
02:00+17sw2481100 0.7 1026185
05:00+16sw2484100 0.4 1024173
08:00+17sw3687100 0.6 1024234
11:00+18ssw3679100 0.1 1022274
14:00+23ssw3557100 0.1 1019570
17:00+22sw2469100 0.8 1017263
20:00+20s2284100 1.4 101564